Location: Bj�rn�ya
(74.5000°N, 19.0000°E)
Time: 07:59:07
(UTC+02:00)

Envisat - Pass Details

Date: 07 February 2022
Orbit: 764 x 765 km, 98.2° (Epoch: 20 May)

Event Time Altitude Azimuth Distance (km) Brightness Sun altitude
Rises 07:40:55 0° 44° (NE) 3,246 6.5 -8.2°
Reaches altitude 10° 07:43:15 10° 40° (NE) 2,318 5.6 -8.0°
Maximum altitude 07:48:14 55° 324° (NW) 927 3.1 -7.8°
Drops below altitude 10° 07:53:11 10° 248° (WSW) 2,314 5.1 -7.5°
Sets 07:55:32 0° 244° (WSW) 3,239 5.9 -7.3°
